Regional Weather Roundup
Issued by NWS

Home | Current Version | Previous Version | Text Only | Print | Product List | Glossary Off
Versions: 1 2 3 4 5 6 7 8 9 10 11 12 13 14 15 16 17 18 19 20 21 22 23 24 25 26 27 28 29 30 31 32 33 34 35 36 37 38 39 40 41 42 43 44 45

000
ASUS45 KBOU 200507
RWRCO

WEATHER ROUNDUP FOR COLORADO
NATIONAL WEATHER SERVICE DENVER/BOULDER CO
1100 PM MDT FRI SEP 19 2014

NOTE: "FAIR" INDICATES FEW OR NO CLOUDS BELOW 12000 FEET WITH NO
SIGNIFICANT WEATHER AND/OR OBSTRUCTIONS TO VISIBILITY.

COZ001>005-013-030-031-200600-
...NORTHWEST COLORADO...

CITY           SKY/WX    TMP DP  RH WIND       PRES   REMARKS
CRAIG          PTCLDY    54  45  71 CALM      30.19R
HAYDEN         PTCLDY    61  39  44 SW3       30.20R
MEEKER         NOT AVBL
MOUNT WERNER   NOT AVBL
STEAMBOAT SPGS PTCLDY    58  44  60 CALM      30.22R
WALDEN         CLEAR     46  37  71 SE9       30.30R
$$

COZ006>008-011-200600-
...WEST CENTRAL VALLEYS...

CITY           SKY/WX    TMP DP  RH WIND       PRES   REMARKS
GRAND JUNCTION CLEAR     67  45  45 VRB3      30.04R
MONTROSE       CLEAR     64  46  52 SE9       30.12R
EAGLE          CLEAR     61  43  51 E5        30.22R
RIFLE          CLEAR     63  44  50 SE6       30.11R
DELTA          CLEAR     67  44  43 E3        30.08R
NUCLA          CLEAR     64  43  45 E12       30.15S
$$

COZ017>023-064>068-200600-
...SOUTHWEST COLORADO...

CITY           SKY/WX    TMP DP  RH WIND       PRES   REMARKS
DURANGO        PTCLDY    65  44  46 CALM      30.15R
CORTEZ         CLEAR     58  48  69 E6        30.11R
PAGOSA SPRINGS CLEAR     59  45  59 NW8       30.23S
TELLURIDE      NOT AVBL
WOLF CREEK PAS PTCLDY    46  30  53 NE5       30.54S
$$

COZ009-010-012-014-032>034-037-058>063-200600-
...CENTRAL COLORADO...

CITY           SKY/WX    TMP DP  RH WIND       PRES   REMARKS
ASPEN          CLEAR     54  40  59 SW7       30.27R
BUENA VISTA    CLEAR     56  41  58 CALM      30.28R
COPPER MTN     PTCLDY    52  36  54 W8        30.59S
BERTHOUD PASS  FAIR      43  41  93 NW12      30.63R
COTTONWOOD PAS CLEAR     61  30  31 W6        30.42R
GUNNISON       CLEAR     54  37  54 CALM      30.28R
KREMMLING      CLOUDY    54  39  58 CALM      30.27R
LEADVILLE      CLEAR     47  32  56 NE7       30.42R
SALIDA         CLEAR     60  39  46 CALM      30.32R
SUNLIGHT       CLEAR     55  39  54 N3        30.51R
WILKERSON PASS NOT AVBL
$$

COZ069>075-200600-
...SAN LUIS VALLEY/SANGRE DE CRISTO MOUNTAINS...

CITY           SKY/WX    TMP DP  RH WIND       PRES   REMARKS
ALAMOSA        PTCLDY    56  31  38 S13       30.20R
LA VETA PASS   CLEAR     54  30  40 NE6       30.42S
SAGUACHE       NOT AVBL
$$

COZ035-036-038>040-200600-
...NORTHERN COLORADO FRONT RANGE...

CITY           SKY/WX    TMP DP  RH WIND       PRES   REMARKS
DENVER INTL AP PTCLDY    62  49  62 S9        30.08R
DMNS CITY PARK   N/A     67  50  55 NE2       30.10R
AURORA         PTCLDY    67  46  47 SE7       30.12R
FRONT RANGE AP MOCLDY    64  50  59 E7        30.09R
ERIE MUNI ARPT PTCLDY    67  48  50 CALM      30.07S
BOULDER MUN AP PTCLDY    68  50  52 CALM      30.09R
CENTENNIAL     PTCLDY    66  45  46 S5        30.12R
BROOMFIELD     NOT AVBL
FORT COLLINS   PTCLDY    68  52  56 SW5       30.06S
LONGMONT       PTCLDY    64  51  63 S5        30.09R
$$

COZ041-046-047-076>085-087-088-200600-
...PIKES PEAK/PALMER DIVIDE AND SOUTHERN FOOTHILLS...

CITY           SKY/WX    TMP DP  RH WIND       PRES   REMARKS
COLO. SPRINGS  PTCLDY    64  41  42 N9        30.11F
A. F. ACADEMY  PTCLDY    62  40  44 N8        30.14S
ELLICOTT       NOT AVBL
FALCON         PTCLDY    60  40  47 NW6       30.18R
FORT CARSON    PTCLDY    62  42  47 NW8       30.08S
LIMON          CLEAR     55  41  59 N7        30.07R
MONUMENT HILL  PTCLDY    55  37  50 NW3       30.18R
TRINIDAD       CLEAR     69  56  62 W20       30.05F
$$

COZ042>045-048>051-090-091-200600-
...NORTHEAST COLORADO...

CITY           SKY/WX    TMP DP  RH WIND       PRES   REMARKS
GREELEY ARPT   PTCLDY    64  48  55 W10       30.03R
AKRON          CLOUDY    73  49  42 W5        30.02F
BURLINGTON     CLEAR     68  59  73 S12       29.99R
WRAY           CLOUDY    75  57  53 S16G23    29.92F
STERLING       CLOUDY    70  59  68 W6        29.95R
HOLYOKE        CLOUDY    72  55  56 NW3       29.92R
FORT MORGAN    CLOUDY    69  52  54 NW17G28   30.00S
$$

COZ086-089-092>099-200600-
...SOUTHEAST COLORADO...

CITY           SKY/WX    TMP DP  RH WIND       PRES   REMARKS
PUEBLO         CLEAR     66  35  31 SW3       29.99R
LA JUNTA       CLEAR     73  56  54 S7        29.96R
LAMAR          CLEAR     71  61  70 S16       29.92S
SPRINGFIELD      N/A     64  62  93 S18       30.02S
$$


USA.gov is the U.S. government's official web portal to all federal, state and local government web resources and services.